Wind_Speed
76 76 77 76 74 72 71 71 72 70 66 64 66 65 67 65 67 67 69 68 69 72 71 68 69 67 60 54 52 51 52 50 44 43 44 44 42 43 44 42 42 42 40 38
80 81 81 81 79 76 77 76 76 76 73 71 70 68 67 69 70 70 70 70 72 74 69 69 70 61 60 55 52 53 52 49 46 44 43 44 46 43 45 43 43 42 43 42
85 85 89 87 86 81 83 80 82 82 78 77 76 72 67 76 74 72 72 75 78 75 75 70 61 61 58 52 48 48 49 48 46 44 44 45 46 47 46 45 43 44 45 44
93 94 93 92 89 86 89 86 87 85 86 82 81 72 77 81 83 79 80 80 80 80 82 73 63 56 53 51 46 44 43 48 46 46 44 46 48 50 49 48 45 46 45 45
97 99 99 98 96 91 89 91 91 89 86 84 87 80 81 84 86 82 81 78 77 82 71 64 55 58 60 64 60 55 49 47 46 44 43 47 51 51 52 49 47 46 46 48
102 99 99 100 98 95 92 93 91 92 89 87 85 83 84 83 80 82 81 81 82 64 62 59 57 57 71 60 58 57 54 45 46 47 45 49 51 52 55 54 47 45 48 48
104 103 102 101 100 99 98 97 95 89 88 89 85 85 87 84 81 83 84 83 72 62 64 70 69 65 68 60 62 56 54 47 45 46 47 51 52 55 55 55 46 44 48 51
104 106 106 104 103 99 98 97 94 89 90 89 84 83 85 87 88 87 82 75 71 67 68 69 72 71 65 54 56 53 50 52 48 48 50 52 53 57 57 55 51 44 49 48
104 106 104 107 103 102 102 101 98 97 97 89 85 84 81 82 84 82 80 77 75 76 77 80 77 67 60 53 52 53 51 52 53 51 53 54 55 57 59 54 52 45 48 50
100 99 98 99 100 100 100 98 96 96 90 87 86 82 79 79 84 86 84 83 83 79 74 70 63 56 53 52 51 53 50 53 53 54 58 57 58 60 60 55 53 48 46 47
102 102 100 100 101 102 102 101 101 97 92 87 80 79 79 79 84 84 82 81 77 74 69 63 58 54 51 53 50 51 51 53 56 59 60 59 60 63 63 60 55 42 46 45
105 105 104 102 101 103 103 103 106 103 99 98 93 79 79 83 83 86 82 79 75 72 68 63 57 55 54 54 53 53 54 55 58 61 61 61 64 65 66 62 49 47 48 45
99 98 97 95 97 99 100 100 102 103 102 91 96 77 81 80 80 88 83 82 81 76 69 65 62 60 57 57 57 58 58 61 62 59 62 64 66 67 68 58 53 49 43 44
104 100 96 94 93 98 97 99 97 97 97 91 87 87 81 82 82 85 84 81 79 75 70 68 62 58 57 58 59 61 63 65 59 59 64 67 67 69 64 60 50 41 42 48
108 103 106 102 99 103 110 103 99 100 98 102 92 94 82 77 87 87 85 82 80 75 71 68 63 61 58 58 58 60 62 61 60 61 66 69 70 66 62 55 48 43 47 52
110 103 110 105 99 109 114 102 94 98 97 99 98 93 72 88 87 84 86 84 80 77 74 69 63 62 62 60 59 60 63 64 65 65 66 66 61 60 54 53 46 45 53 56
108 109 114 107 104 113 116 91 97 95 93 93 92 82 81 86 87 82 82 81 77 76 73 68 64 62 64 63 59 62 67 69 69 68 65 61 62 52 51 53 53 54 58 64
109 109 113 106 109 115 94 97 92 93 94 91 91 87 83 86 86 79 77 79 76 77 70 68 66 63 64 64 61 62 60 68 69 63 62 63 55 50 51 49 50 57 63 64
110 112 115 113 110 110 104 86 89 98 101 90 89 84 84 85 90 81 88 85 73 72 69 65 64 64 63 62 61 62 68 68 65 63 63 55 55 52 42 46 54 57 59 64
115 114 117 113 112 113 99 88 88 104 93 82 92 86 86 87 91 75 88 81 76 72 64 58 59 63 62 60 62 65 63 66 66 66 62 57 51 48 46 55 58 61 66 69
117 120 117 114 118 105 90 88 89 103 83 90 93 89 89 92 94 88 82 81 78 70 59 56 54 57 56 59 57 58 60 62 59 56 51 47 45 47 56 56 58 66 67 69
113 113 106 110 109 104 84 84 88 86 93 94 94 95 92 93 92 87 81 73 71 60 52 49 48 51 50 54 58 55 52 50 47 50 44 46 49 56 55 57 65 65 67 73
111 112 112 108 99 88 85 87 87 92 93 93 100 94 88 86 86 81 73 61 57 45 39 35 41 44 45 53 48 43 48 51 52 45 44 53 56 56 57 62 64 67 74 80
103 107 106 109 90 89 84 89 89 96 96 94 90 86 82 71 71 65 57 51 42 38 33 26 31 33 45 40 39 44 49 53 56 43 55 56 53 56 64 68 73 77 79 86
90 101 99 95 83 94 88 87 86 88 84 73 70 64 62 60 57 52 45 36 39 31 32 35 33 48 45 37 50 56 58 52 45 48 51 52 58 64 70 72 74 80 87 92
70 74 86 69 72 78 65 76 69 65 63 59 53 50 48 44 41 37 34 38 37 34 40 40 36 47 52 50 48 49 51 48 47 48 51 59 63 65 71 77 81 86 90 94
Wind_Direction
264 265 269 271 273 277 280 281 282 285 287 290 293 296 296 299 303 304 308 311 314 319 318 323 324 325 324 324 324 322 325 323 321 326 330 329 329 326 326 323 326 322 321 329
269 271 271 272 273 274 276 279 281 283 286 287 288 289 293 296 299 302 304 308 310 315 316 317 320 322 318 321 320 320 321 320 317 323 327 327 327 325 324 321 320 314 317 320
266 269 269 269 271 272 274 277 280 281 282 285 286 288 296 296 295 298 303 305 308 311 313 320 313 319 317 322 317 319 317 315 317 319 325 325 324 323 324 321 314 311 313 316
264 266 268 270 273 274 277 277 279 280 282 284 287 289 293 293 296 298 301 302 306 308 312 314 318 319 317 326 318 321 318 315 315 315 320 323 321 323 323 320 313 311 312 307
266 269 269 269 272 273 275 278 280 280 287 288 289 291 294 293 295 301 302 304 308 310 309 313 318 311 319 321 321 321 319 314 309 311 317 321 322 322 321 318 311 311 305 310
265 266 270 271 270 272 273 277 281 280 284 287 288 290 292 295 294 297 299 301 306 306 309 311 313 310 320 318 311 317 316 305 304 305 312 318 321 320 319 317 310 307 303 307
264 265 268 271 273 273 275 278 279 282 283 285 288 290 290 292 294 296 298 300 302 303 305 307 310 309 312 312 307 306 306 298 297 303 309 316 318 317 317 314 311 309 300 305
262 264 266 268 270 272 273 275 278 279 281 284 285 287 289 292 294 295 298 298 298 303 305 304 307 306 309 306 304 302 299 296 295 301 309 312 314 315 314 312 313 308 302 303
261 263 267 267 269 270 272 274 277 279 279 280 282 285 288 291 293 295 295 298 300 301 304 302 301 303 305 302 297 294 291 290 295 303 308 311 310 311 312 312 311 304 303 302
261 262 266 267 268 270 273 276 278 278 280 279 281 282 289 287 290 295 294 295 296 299 300 301 298 299 301 298 295 288 287 291 295 300 304 306 309 308 308 309 308 303 306 297
260 263 266 267 270 270 274 276 278 278 280 280 282 286 285 289 289 288 289 290 291 292 293 296 295 293 294 291 290 284 284 290 295 299 301 302 305 304 304 308 312 299 297 301
257 260 262 265 267 268 271 272 275 276 277 281 284 282 282 284 285 285 285 286 287 289 290 291 289 285 285 286 285 280 280 283 289 294 297 299 300 301 304 309 306 298 300 297
256 258 260 262 264 266 266 269 271 272 274 278 279 283 281 281 282 283 284 286 286 286 286 285 282 281 283 280 281 279 279 282 286 291 292 295 298 300 303 307 307 303 297 300
257 258 259 259 261 264 264 266 269 272 276 278 281 281 282 284 283 281 283 282 281 282 284 285 281 279 279 274 275 276 277 282 285 287 289 293 298 298 301 306 307 300 292 301
258 260 261 261 262 265 265 267 270 275 278 280 280 281 286 283 280 281 281 280 280 281 280 280 281 280 276 276 276 277 280 282 283 286 289 292 294 297 305 307 308 297 294 299
259 259 260 262 264 264 265 269 273 276 276 276 279 281 284 281 282 280 277 277 277 277 277 276 277 276 274 274 275 276 279 282 283 285 288 292 297 305 302 305 297 291 299 297
259 261 262 261 261 262 266 275 271 273 276 276 278 280 279 278 277 277 278 278 280 279 278 278 275 272 272 272 273 274 278 278 279 283 286 292 293 297 290 294 291 295 296 302
256 258 261 263 263 266 273 268 272 275 273 275 278 280 277 277 278 279 283 282 280 281 281 278 271 267 266 269 269 272 273 277 279 281 286 288 290 289 294 284 286 294 297 296
258 258 261 263 264 268 268 272 271 274 273 279 281 279 278 281 281 285 283 278 286 284 285 277 271 265 265 266 266 266 268 270 275 280 285 287 289 290 282 283 290 294 295 294
258 259 261 263 264 266 270 271 273 270 276 283 278 279 281 278 279 280 276 284 289 287 280 275 269 266 266 265 266 270 271 274 276 279 284 287 286 289 281 285 289 292 293 292
259 260 263 265 265 265 270 272 273 273 282 272 271 274 275 276 278 280 284 285 282 276 273 270 265 262 265 264 263 268 272 277 279 280 283 289 287 282 282 286 294 288 289 296
263 264 264 264 267 265 271 268 269 272 269 271 271 269 269 272 275 274 276 278 273 270 266 263 262 258 259 268 266 268 272 275 274 282 284 283 278 278 286 290 287 289 294 297
261 262 264 265 265 268 266 264 266 268 268 269 269 268 272 273 269 271 273 270 264 263 248 251 262 262 254 238 267 267 271 281 282 283 273 276 285 291 288 284 287 292 292 296
260 261 263 263 268 267 266 265 264 265 264 264 269 271 268 268 267 264 264 258 252 229 232 243 257 235 251 258 267 270 272 267 278 278 268 284 291 287 283 281 288 293 294 293
257 259 263 263 264 262 260 260 260 261 263 263 262 262 264 260 257 254 250 232 211 216 231 221 230 245 259 249 253 253 260 270 277 275 281 286 285 280 281 284 289 291 291 292
257 254 254 255 255 255 255 257 257 257 260 259 259 255 250 244 239 230 209 207 209 219 226 233 234 230 247 251 260 265 269 276 277 279 281 279 282 286 288 288 287 290 294 299
Height
10850 10848 10849 10848 10849 10854 10856 10857 10856 10857 10862 10863 10861 10861 10852 10854 10848 10845 10843 10839 10836 10832 10829 10824 10817 10811 10807 10801 10796 10789 10784 10778 10773 10768 10763 10758 10753 10747 10741 10737 10733 10727 10722 10717
10840 10837 10837 10835 10838 10842 10842 10844 10845 10845 10849 10851 10852 10850 10849 10843 10839 10836 10835 10833 10831 10829 10824 10818 10812 10806 10800 10796 10790 10783 10777 10772 10767 10762 10757 10752 10747 10741 10736 10731 10727 10722 10716 10711
10823 10819 10817 10819 10824 10831 10826 10832 10833 10834 10836 10837 10838 10841 10844 10826 10826 10829 10829 10825 10821 10819 10816 10810 10803 10798 10792 10788 10784 10779 10771 10766 10761 10756 10750 10745 10740 10735 10729 10724 10720 10714 10709 10704
10804 10801 10804 10803 10808 10816 10813 10820 10821 10823 10825 10828 10820 10839 10828 10816 10811 10816 10818 10814 10812 10807 10804 10801 10794 10787 10784 10782 10776 10771 10764 10758 10754 10750 10745 10739 10733 10729 10722 10716 10711 10707 10703 10698
10789 10788 10788 10788 10793 10800 10802 10805 10809 10812 10816 10819 10809 10821 10815 10809 10801 10800 10803 10801 10799 10795 10791 10789 10785 10774 10767 10765 10764 10761 10756 10750 10746 10741 10737 10732 10725 10721 10715 10709 10703 10699 10696 10692
10771 10772 10769 10773 10780 10786 10789 10791 10795 10800 10803 10804 10805 10804 10797 10796 10798 10789 10787 10788 10788 10783 10778 10776 10774 10770 10758 10752 10747 10750 10744 10740 10735 10731 10728 10724 10718 10712 10706 10700 10695 10691 10687 10683
10753 10755 10755 10758 10760 10768 10771 10776 10781 10787 10789 10789 10794 10792 10782 10780 10780 10780 10774 10773 10774 10772 10769 10763 10761 10760 10756 10744 10743 10737 10734 10730 10726 10722 10718 10714 10709 10704 10698 10692 10687 10682 10678 10675
10734 10737 10740 10744 10745 10749 10752 10757 10763 10772 10772 10776 10777 10777 10772 10766 10761 10762 10761 10760 10760 10760 10757 10754 10750 10746 10744 10739 10730 10728 10725 10722 10719 10715 10709 10704 10699 10694 10689 10682 10677 10674 10669 10666
10716 10719 10723 10724 10729 10734 10738 10738 10747 10751 10755 10763 10763 10761 10760 10752 10746 10747 10745 10745 10745 10747 10743 10739 10737 10734 10732 10727 10722 10717 10714 10710 10708 10704 10699 10693 10689 10685 10680 10673 10667 10664 10659 10655
10696 10703 10707 10709 10711 10714 10716 10724 10726 10729 10737 10743 10747 10750 10750 10744 10735 10732 10730 10726 10729 10730 10731 10727 10723 10720 10718 10715 10711 10705 10702 10698 10696 10693 10689 10683 10677 10673 10669 10663 10658 10655 10650 10645
10675 10684 10693 10696 10697 10693 10698 10700 10703 10707 10715 10722 10735 10737 10731 10734 10720 10715 10714 10710 10714 10715 10715 10715 10709 10707 10705 10702 10701 10697 10692 10688 10684 10679 10675 10671 10666 10661 10656 10652 10648 10645 10640 10634
10657 10666 10674 10678 10681 10680 10678 10680 10680 10687 10696 10706 10709 10732 10716 10715 10705 10695 10696 10693 10694 10698 10701 10702 10697 10695 10694 10692 10691 10686 10682 10680 10675 10668 10664 10660 10655 10650 10644 10640 10637 10633 10629 10622
10636 10646 10655 10665 10663 10659 10660 10660 10661 10662 10673 10699 10678 10711 10697 10698 10694 10672 10678 10678 10674 10678 10682 10685 10682 10680 10683 10680 10679 10676 10673 10669 10663 10658 10653 10648 10643 10638 10634 10629 10625 10620 10616 10611
10610 10625 10639 10645 10647 10636 10640 10636 10644 10646 10655 10665 10674 10674 10682 10671 10671 10654 10661 10658 10655 10659 10662 10664 10665 10663 10664 10664 10663 10661 10659 10656 10653 10647 10641 10634 10631 10626 10621 10617 10612 10607 10604 10598
10585 10608 10599 10617 10629 10621 10602 10622 10636 10638 10643 10632 10657 10649 10663 10644 10638 10638 10634 10636 10638 10640 10641 10642 10647 10648 10646 10644 10645 10644 10642 10641 10639 10633 10627 10621 10617 10612 10607 10603 10598 10594 10591 10586
10560 10587 10564 10589 10606 10589 10572 10616 10630 10620 10622 10613 10627 10638 10642 10620 10618 10618 10610 10614 10619 10619 10620 10624 10630 10631 10627 10628 10629 10628 10627 10625 10623 10618 10614 10608 10602 10594 10590 10587 10584 10581 10577 10572
10545 10548 10534 10567 10573 10551 10566 10616 10601 10605 10605 10595 10607 10623 10616 10599 10594 10594 10587 10594 10599 10599 10601 10609 10612 10614 10610 10610 10612 10611 10610 10610 10606 10604 10600 10596 10592 10587 10582 10576 10572 10568 10563 10558
10524 10521 10508 10537 10531 10530 10590 10576 10583 10586 10578 10581 10584 10596 10590 10576 10569 10573 10571 10572 10577 10577 10586 10589 10590 10592 10592 10594 10595 10597 10591 10590 10590 10589 10587 10583 10579 10575 10570 10566 10562 10557 10551 10543
10500 10496 10491 10498 10515 10528 10551 10578 10558 10554 10549 10572 10562 10565 10559 10556 10539 10565 10545 10538 10563 10563 10564 10567 10570 10572 10574 10578 10579 10580 10580 10578 10576 10575 10572 10569 10566 10562 10558 10554 10550 10544 10537 10530
10470 10473 10465 10485 10488 10502 10538 10547 10540 10511 10537 10563 10524 10538 10536 10528 10517 10546 10518 10535 10542 10543 10542 10547 10551 10553 10556 10561 10562 10562 10563 10562 10561 10560 10558 10555 10552 10548 10545 10540 10535 10529 10521 10513
10443 10445 10447 10461 10451 10485 10518 10522 10519 10497 10535 10509 10501 10508 10508 10503 10501 10511 10519 10521 10524 10522 10525 10528 10531 10534 10541 10543 10549 10546 10547 10546 10545 10544 10543 10541 10537 10534 10530 10525 10519 10512 10505 10497
10421 10413 10434 10427 10430 10459 10493 10489 10486 10491 10481 10481 10482 10480 10488 10485 10482 10488 10497 10501 10503 10507 10510 10512 10516 10521 10527 10532 10531 10533 10533 10533 10532 10530 10529 10527 10525 10521 10516 10509 10503 10496 10489 10481
10392 10395 10395 10400 10416 10444 10456 10456 10461 10453 10450 10455 10441 10459 10460 10463 10464 10467 10477 10484 10488 10493 10495 10500 10506 10511 10518 10524 10519 10520 10521 10518 10518 10517 10515 10513 10509 10504 10499 10493 10486 10478 10472 10464
10367 10368 10370 10369 10415 10415 10421 10422 10425 10415 10418 10428 10431 10433 10437 10445 10445 10449 10460 10467 10473 10479 10482 10492 10499 10503 10505 10507 10508 10508 10509 10509 10508 10503 10503 10499 10493 10488 10484 10477 10468 10462 10456 10447
10359 10342 10350 10359 10393 10372 10384 10385 10388 10389 10398 10411 10412 10416 10420 10421 10426 10433 10443 10452 10461 10467 10473 10479 10486 10490 10492 10495 10498 10498 10499 10497 10493 10490 10487 10484 10480 10474 10467 10460 10454 10447 10438 10428
10321 10327 10313 10351 10349 10341 10367 10353 10371 10380 10384 10391 10394 10396 10399 10405 10411 10419 10430 10442 10451 10461 10463 10466 10473 10479 10481 10481 10483 10484 10483 10480 10478 10475 10472 10468 10463 10457 10451 10444 10437 10428 10418 10408